TSC320 KFLL-MDSD

Flight info

Callsign TSC320
Flight time 1h 57m
Altitude 39000
Route SNAPR2 SUMAC Y443 RUMFO Y441 JUELE UW38 PTA DCT KODIX KODIX2G
Aircraft A20N/M-SDE2E3FGHIRWXY/LB1

Departure

Time 2026-05-04 00:04
Airport Fort Lauderdale Hollywood International Airport (KFLL)

Arrival

Time 2026-05-04 02:02
Airport Las Américas International Airport (MDSD)
Time Latitude Longitude Altitude Speed Heading
2026-05-03 22:44 26.06962 -80.14148 22 ft 0 kts 281°
2026-05-03 23:14 26.06960 -80.14135 22 ft 2 kts 275°
2026-05-03 23:14 26.06960 -80.14120 22 ft 3 kts 270°
2026-05-03 23:15 26.06968 -80.14102 22 ft 3 kts 199°
2026-05-03 23:15 26.06971 -80.14100 22 ft 0 kts 190°
2026-05-03 23:18 26.06951 -80.14100 22 ft 5 kts 175°
2026-05-03 23:18 26.06901 -80.14084 20 ft 10 kts 160°
2026-05-03 23:18 26.06857 -80.14079 19 ft 0 kts 176°
2026-05-03 23:18 26.06855 -80.14079 19 ft 0 kts 176°
2026-05-03 23:19 26.06853 -80.14079 19 ft 1 kts 178°
2026-05-03 23:19 26.06849 -80.14080 19 ft 1 kts 188°
2026-05-03 23:19 26.06837 -80.14095 18 ft 4 kts 250°
2026-05-03 23:19 26.06825 -80.14149 18 ft 10 kts 262°
2026-05-03 23:20 26.06819 -80.14236 18 ft 13 kts 268°
2026-05-03 23:20 26.06818 -80.14337 18 ft 13 kts 271°
2026-05-03 23:20 26.06818 -80.14432 17 ft 7 kts 268°
2026-05-03 23:20 26.06818 -80.14444 17 ft 1 kts 269°
2026-05-03 23:21 26.06818 -80.14454 17 ft 0 kts 271°
2026-05-03 23:21 26.06818 -80.14458 17 ft 0 kts 270°
2026-05-03 23:21 26.06818 -80.14459 17 ft 0 kts 270°
2026-05-03 23:21 26.06818 -80.14480 17 ft 5 kts 269°
2026-05-03 23:22 26.06818 -80.14502 16 ft 3 kts 270°
2026-05-03 23:22 26.06821 -80.14542 16 ft 8 kts 282°
2026-05-03 23:22 26.06840 -80.14597 16 ft 9 kts 297°
2026-05-03 23:23 26.06884 -80.14658 18 ft 12 kts 314°
2026-05-03 23:23 26.06939 -80.14736 18 ft 12 kts 277°
2026-05-03 23:23 26.06914 -80.14823 19 ft 13 kts 262°
2026-05-03 23:23 26.06907 -80.14912 21 ft 11 kts 268°
2026-05-03 23:24 26.06907 -80.14998 22 ft 10 kts 271°
2026-05-03 23:24 26.06909 -80.15070 23 ft 7 kts 271°
2026-05-03 23:24 26.06886 -80.15120 23 ft 9 kts 214°
2026-05-03 23:24 26.06816 -80.15132 23 ft 12 kts 184°
2026-05-03 23:25 26.06739 -80.15130 25 ft 11 kts 185°
2026-05-03 23:25 26.06696 -80.15187 26 ft 11 kts 258°
2026-05-03 23:25 26.06693 -80.15253 25 ft 0 kts 272°
2026-05-03 23:26 26.06693 -80.15268 26 ft 3 kts 272°
2026-05-03 23:26 26.06693 -80.15269 26 ft 0 kts 272°
2026-05-03 23:28 26.06694 -80.15269 26 ft 1 kts 272°
2026-05-03 23:28 26.06694 -80.15272 26 ft 0 kts 272°
2026-05-03 23:36 26.06694 -80.15273 26 ft 0 kts 272°
2026-05-03 23:36 26.06694 -80.15284 26 ft 0 kts 272°
2026-05-03 23:36 26.06694 -80.15286 26 ft 1 kts 272°
2026-05-03 23:37 26.06695 -80.15314 26 ft 0 kts 272°
2026-05-03 23:40 26.06695 -80.15323 26 ft 0 kts 272°
2026-05-03 23:40 26.06696 -80.15328 28 ft 0 kts 272°
2026-05-03 23:41 26.06696 -80.15335 27 ft 3 kts 272°
2026-05-03 23:41 26.06696 -80.15339 27 ft 0 kts 272°
2026-05-03 23:42 26.06696 -80.15343 26 ft 0 kts 272°
2026-05-03 23:47 26.06696 -80.15344 26 ft 1 kts 272°
2026-05-03 23:47 26.06697 -80.15369 28 ft 6 kts 272°
2026-05-03 23:47 26.06698 -80.15393 30 ft 2 kts 272°
2026-05-03 23:47 26.06696 -80.15453 25 ft 8 kts 269°
2026-05-03 23:48 26.06696 -80.15479 25 ft 7 kts 270°
2026-05-03 23:48 26.06696 -80.15540 24 ft 0 kts 270°
2026-05-03 23:48 26.06696 -80.15541 24 ft 1 kts 270°
2026-05-03 23:48 26.06697 -80.15566 24 ft 0 kts 270°
2026-05-03 23:50 26.06697 -80.15567 24 ft 0 kts 270°
2026-05-03 23:52 26.06697 -80.15572 24 ft 3 kts 270°
2026-05-03 23:52 26.06697 -80.15613 26 ft 8 kts 270°
2026-05-03 23:52 26.06697 -80.15623 23 ft 1 kts 270°
2026-05-03 23:53 26.06697 -80.15649 23 ft 6 kts 270°
2026-05-03 23:53 26.06697 -80.15675 24 ft 5 kts 270°
2026-05-03 23:53 26.06697 -80.15688 25 ft 0 kts 270°
2026-05-03 23:54 26.06697 -80.15691 25 ft 0 kts 270°
2026-05-03 23:56 26.06697 -80.15694 25 ft 2 kts 270°
2026-05-03 23:56 26.06697 -80.15726 24 ft 0 kts 270°
2026-05-03 23:56 26.06697 -80.15729 24 ft 2 kts 270°
2026-05-03 23:57 26.06697 -80.15739 25 ft 0 kts 270°
2026-05-03 23:58 26.06697 -80.15755 24 ft 4 kts 270°
2026-05-03 23:59 26.06697 -80.15763 24 ft 0 kts 264°
2026-05-04 00:00 26.06697 -80.15764 22 ft 0 kts 264°
2026-05-04 00:00 26.06692 -80.15785 23 ft 6 kts 253°
2026-05-04 00:00 26.06685 -80.15800 24 ft 0 kts 236°
2026-05-04 00:01 26.06685 -80.15801 24 ft 0 kts 233°
2026-05-04 00:03 26.06680 -80.15806 22 ft 4 kts 227°
2026-05-04 00:03 26.06634 -80.15820 20 ft 10 kts 179°
2026-05-04 00:03 26.06593 -80.15761 21 ft 10 kts 98°
2026-05-04 00:03 26.06593 -80.15749 21 ft 7 kts 93°
2026-05-04 00:04 26.06597 -80.15423 24 ft 88 kts 89°
2026-05-04 00:04 26.06578 -80.14433 65 ft 162 kts 90°
2026-05-04 00:04 26.06559 -80.13127 393 ft 202 kts 87°
2026-05-04 00:04 26.06591 -80.11573 1237 ft 218 kts 86°
2026-05-04 00:05 26.06635 -80.09785 2027 ft 238 kts 88°
2026-05-04 00:05 26.06666 -80.08005 2728 ft 227 kts 89°
2026-05-04 00:05 26.06688 -80.06314 2553 ft 225 kts 89°
2026-05-04 00:05 26.06702 -80.04593 2193 ft 229 kts 89°
2026-05-04 00:06 26.06714 -80.02826 2028 ft 223 kts 88°
2026-05-04 00:06 26.06726 -80.01147 2034 ft 219 kts 89°
2026-05-04 00:06 26.06732 -79.99285 2039 ft 258 kts 89°
2026-05-04 00:06 26.06720 -79.97575 2165 ft 286 kts 90°
2026-05-04 00:07 26.06695 -79.95535 3070 ft 290 kts 90°
2026-05-04 00:07 26.06669 -79.93371 4499 ft 281 kts 91°
2026-05-04 00:07 26.06647 -79.91500 5397 ft 288 kts 91°
2026-05-04 00:07 26.06623 -79.89333 6378 ft 294 kts 91°
2026-05-04 00:08 26.06600 -79.87077 7332 ft 299 kts 91°
2026-05-04 00:08 26.06578 -79.84902 8248 ft 304 kts 91°
2026-05-04 00:08 26.06486 -79.82608 9177 ft 309 kts 98°
2026-05-04 00:08 26.06131 -79.80276 10119 ft 313 kts 101°
2026-05-04 00:09 26.05756 -79.77902 11035 ft 316 kts 102°
2026-05-04 00:09 26.05382 -79.75519 11895 ft 322 kts 102°
2026-05-04 00:09 26.04994 -79.73034 12601 ft 329 kts 102°
2026-05-04 00:09 26.04605 -79.70536 12895 ft 331 kts 102°
2026-05-04 00:10 26.04217 -79.68045 13009 ft 332 kts 102°
2026-05-04 00:10 26.03824 -79.65526 13026 ft 332 kts 102°
2026-05-04 00:10 26.03304 -79.63039 13027 ft 330 kts 107°
2026-05-04 00:10 26.02718 -79.60565 13027 ft 330 kts 107°
2026-05-04 00:11 26.02165 -79.58211 13026 ft 330 kts 107°
2026-05-04 00:11 26.01597 -79.55787 13027 ft 330 kts 107°
2026-05-04 00:11 26.01016 -79.53313 13027 ft 330 kts 107°
2026-05-04 00:11 26.00439 -79.50853 13027 ft 330 kts 107°
2026-05-04 00:12 25.99865 -79.48413 13027 ft 330 kts 107°
2026-05-04 00:12 25.99297 -79.45997 13027 ft 330 kts 107°
2026-05-04 00:12 25.98737 -79.43619 13027 ft 330 kts 107°
2026-05-04 00:12 25.98158 -79.41159 13028 ft 330 kts 108°
2026-05-04 00:13 25.97570 -79.38693 13029 ft 329 kts 110°
2026-05-04 00:13 25.96789 -79.36316 13030 ft 328 kts 115°
2026-05-04 00:13 25.96033 -79.34160 13029 ft 328 kts 115°
2026-05-04 00:13 25.95226 -79.31845 13029 ft 328 kts 115°
2026-05-04 00:14 25.94410 -79.29497 13029 ft 328 kts 114°
2026-05-04 00:14 25.93589 -79.27135 13032 ft 328 kts 114°
2026-05-04 00:14 25.92777 -79.24800 13032 ft 328 kts 114°
2026-05-04 00:14 25.91975 -79.22499 13032 ft 328 kts 115°
2026-05-04 00:15 25.91155 -79.20146 13032 ft 328 kts 115°
2026-05-04 00:15 25.90332 -79.17785 13032 ft 328 kts 115°
2026-05-04 00:15 25.89510 -79.15429 13032 ft 328 kts 115°
2026-05-04 00:15 25.88683 -79.13061 13032 ft 328 kts 115°
2026-05-04 00:16 25.87857 -79.10697 13032 ft 328 kts 115°
2026-05-04 00:16 25.87031 -79.08334 13032 ft 328 kts 115°
2026-05-04 00:16 25.86206 -79.05976 13032 ft 328 kts 115°
2026-05-04 00:16 25.85389 -79.03641 13031 ft 327 kts 115°
2026-05-04 00:17 25.84573 -79.01310 13032 ft 327 kts 115°
2026-05-04 00:17 25.83761 -78.98993 13022 ft 327 kts 114°
2026-05-04 00:17 25.82951 -78.96689 13027 ft 327 kts 114°
2026-05-04 00:17 25.82447 -78.95253 13027 ft 327 kts 114°
2026-05-04 00:18 25.81548 -78.92691 13028 ft 327 kts 114°
2026-05-04 00:18 25.80768 -78.90468 13031 ft 327 kts 114°
2026-05-04 00:18 25.79940 -78.88113 13030 ft 327 kts 114°
2026-05-04 00:18 25.79160 -78.85893 13029 ft 327 kts 114°
2026-05-04 00:19 25.78628 -78.84381 13030 ft 327 kts 114°
2026-05-04 00:19 25.77563 -78.81354 13032 ft 327 kts 114°
2026-05-04 00:19 25.76751 -78.79048 13033 ft 327 kts 114°
2026-05-04 00:19 25.76091 -78.77174 13030 ft 327 kts 114°
2026-05-04 00:20 25.75298 -78.74923 13035 ft 327 kts 115°
2026-05-04 00:20 25.74486 -78.72642 13031 ft 326 kts 117°
2026-05-04 00:20 25.73446 -78.70472 13032 ft 323 kts 127°
2026-05-04 00:20 25.72281 -78.68600 13031 ft 322 kts 128°
2026-05-04 00:21 25.71018 -78.66558 13030 ft 323 kts 128°
2026-05-04 00:21 25.70252 -78.65308 13031 ft 324 kts 128°
2026-05-04 00:21 25.68624 -78.62644 13033 ft 323 kts 128°
2026-05-04 00:21 25.67429 -78.60691 13033 ft 323 kts 128°
2026-05-04 00:22 25.66169 -78.58634 13032 ft 323 kts 128°
2026-05-04 00:22 25.65329 -78.57266 13031 ft 323 kts 128°
2026-05-04 00:22 25.64193 -78.55415 13043 ft 324 kts 128°
2026-05-04 00:22 25.62953 -78.53398 13327 ft 328 kts 128°
2026-05-04 00:23 25.61711 -78.51377 14129 ft 329 kts 128°
2026-05-04 00:23 25.60450 -78.49324 14945 ft 332 kts 128°
2026-05-04 00:23 25.59169 -78.47240 15694 ft 336 kts 129°
2026-05-04 00:23 25.58418 -78.45956 16137 ft 341 kts 124°
2026-05-04 00:24 25.57934 -78.44957 16451 ft 345 kts 120°
2026-05-04 00:24 25.57485 -78.43828 16795 ft 350 kts 115°
2026-05-04 00:24 25.57379 -78.43519 16899 ft 351 kts 114°
2026-05-04 00:24 25.57267 -78.43169 16990 ft 352 kts 112°
2026-05-04 00:25 25.57036 -78.42341 17220 ft 355 kts 109°
2026-05-04 00:25 25.56609 -78.40614 17697 ft 359 kts 109°
2026-05-04 00:25 25.56285 -78.39310 18019 ft 362 kts 109°
2026-05-04 00:25 25.55942 -78.37933 18404 ft 364 kts 109°
2026-05-04 00:26 25.55307 -78.35421 18974 ft 369 kts 110°
2026-05-04 00:26 25.54607 -78.32674 19598 ft 373 kts 110°
2026-05-04 00:26 25.53907 -78.29941 20194 ft 378 kts 110°
2026-05-04 00:26 25.53317 -78.27643 20688 ft 382 kts 110°
2026-05-04 00:27 25.52648 -78.25033 21248 ft 387 kts 110°
2026-05-04 00:27 25.51935 -78.22258 21831 ft 391 kts 110°
2026-05-04 00:27 25.51191 -78.19360 22422 ft 396 kts 110°
2026-05-04 00:27 25.50514 -78.16728 22949 ft 400 kts 110°
2026-05-04 00:28 25.49769 -78.13831 23515 ft 405 kts 110°
2026-05-04 00:28 25.49010 -78.10883 24030 ft 409 kts 110°
2026-05-04 00:28 25.48254 -78.07945 24523 ft 411 kts 110°
2026-05-04 00:28 25.47567 -78.05280 24968 ft 414 kts 110°
2026-05-04 00:29 25.46844 -78.02477 25413 ft 417 kts 110°
2026-05-04 00:29 25.46079 -77.99518 25885 ft 420 kts 110°
2026-05-04 00:29 25.45277 -77.96414 26340 ft 423 kts 110°
2026-05-04 00:29 25.44461 -77.93263 26865 ft 425 kts 110°
2026-05-04 00:30 25.43676 -77.90234 27293 ft 429 kts 110°
2026-05-04 00:30 25.42869 -77.87121 27730 ft 432 kts 110°
2026-05-04 00:30 25.42036 -77.83912 28176 ft 435 kts 110°
2026-05-04 00:30 25.41303 -77.81093 28573 ft 438 kts 110°
2026-05-04 00:31 25.40517 -77.78067 28981 ft 441 kts 110°
2026-05-04 00:31 25.39731 -77.75047 29381 ft 444 kts 110°
2026-05-04 00:31 25.38890 -77.71824 29804 ft 447 kts 110°
2026-05-04 00:31 25.38159 -77.69026 30155 ft 449 kts 110°
2026-05-04 00:32 25.37344 -77.65905 30515 ft 452 kts 110°
2026-05-04 00:32 25.36476 -77.62580 30997 ft 451 kts 110°
2026-05-04 00:32 25.35643 -77.59391 31485 ft 450 kts 110°
2026-05-04 00:32 25.34836 -77.56307 31901 ft 450 kts 110°
2026-05-04 00:33 25.33995 -77.53093 32357 ft 449 kts 110°
2026-05-04 00:33 25.32276 -77.46539 33272 ft 447 kts 110°
2026-05-04 00:33 25.31425 -77.43296 33704 ft 446 kts 110°
2026-05-04 00:34 25.30596 -77.40142 34095 ft 445 kts 110°
2026-05-04 00:34 25.29660 -77.37099 34403 ft 440 kts 120°
2026-05-04 00:34 25.28328 -77.34492 34651 ft 431 kts 133°
2026-05-04 00:34 25.26399 -77.32044 34931 ft 420 kts 144°
2026-05-04 00:35 25.24273 -77.29837 35225 ft 420 kts 144°
2026-05-04 00:35 25.22190 -77.27664 35537 ft 420 kts 144°
2026-05-04 00:35 25.20066 -77.25440 35838 ft 420 kts 144°
2026-05-04 00:35 25.18619 -77.23923 36039 ft 420 kts 145°
2026-05-04 00:36 25.17003 -77.22228 36244 ft 420 kts 145°
2026-05-04 00:36 25.14929 -77.20056 36499 ft 420 kts 145°
2026-05-04 00:36 25.12857 -77.17886 36762 ft 419 kts 145°
2026-05-04 00:36 25.10749 -77.15679 37029 ft 419 kts 145°
2026-05-04 00:37 25.08667 -77.13502 37278 ft 419 kts 145°
2026-05-04 00:37 25.06564 -77.11303 37497 ft 419 kts 145°
2026-05-04 00:37 25.04461 -77.09107 37743 ft 418 kts 145°
2026-05-04 00:37 25.02383 -77.06937 37955 ft 418 kts 145°
2026-05-04 00:38 25.00287 -77.04750 38033 ft 419 kts 145°
2026-05-04 00:38 24.96082 -77.00363 38043 ft 416 kts 146°
2026-05-04 00:39 24.91901 -76.96009 38044 ft 417 kts 146°
2026-05-04 00:39 24.87682 -76.91619 38050 ft 417 kts 146°
2026-05-04 00:40 24.83459 -76.87228 38046 ft 417 kts 146°
2026-05-04 00:40 24.79250 -76.82858 38049 ft 418 kts 146°
2026-05-04 00:41 24.75076 -76.78525 38052 ft 417 kts 146°
2026-05-04 00:41 24.71009 -76.74312 38050 ft 412 kts 144°
2026-05-04 00:42 24.67088 -76.70254 38048 ft 413 kts 144°
2026-05-04 00:42 24.63274 -76.66307 38050 ft 413 kts 144°
2026-05-04 00:43 24.59186 -76.62081 38053 ft 413 kts 144°
2026-05-04 00:43 24.55148 -76.57910 38053 ft 413 kts 144°
2026-05-04 00:44 24.51025 -76.53655 38053 ft 413 kts 144°
2026-05-04 00:44 24.46888 -76.49391 38055 ft 413 kts 144°
2026-05-04 00:45 24.42803 -76.45186 38053 ft 414 kts 144°
2026-05-04 00:45 24.39075 -76.41348 38036 ft 413 kts 144°
2026-05-04 00:46 24.35161 -76.37328 38052 ft 411 kts 143°
2026-05-04 00:46 24.31084 -76.33141 38051 ft 412 kts 143°
2026-05-04 00:47 24.27075 -76.29027 38047 ft 412 kts 143°
2026-05-04 00:47 24.22927 -76.24773 38062 ft 411 kts 143°
2026-05-04 00:48 24.18766 -76.20512 38068 ft 412 kts 143°
2026-05-04 00:48 24.14617 -76.16265 38068 ft 412 kts 143°
2026-05-04 00:49 24.10505 -76.12061 38059 ft 414 kts 143°
2026-05-04 00:49 24.06369 -76.07835 38061 ft 413 kts 143°
2026-05-04 00:50 24.02467 -76.03851 38058 ft 413 kts 143°
2026-05-04 00:50 23.98324 -75.99626 38059 ft 413 kts 143°
2026-05-04 00:51 23.94140 -75.95363 38047 ft 413 kts 143°
2026-05-04 00:51 23.89991 -75.91140 38053 ft 413 kts 143°
2026-05-04 00:52 23.85918 -75.86998 38060 ft 412 kts 143°
2026-05-04 00:52 23.81812 -75.82825 38059 ft 412 kts 143°
2026-05-04 00:53 23.77650 -75.78601 38060 ft 413 kts 143°
2026-05-04 00:53 23.73897 -75.74797 38061 ft 416 kts 143°
2026-05-04 00:54 23.71056 -75.71917 38042 ft 416 kts 143°
2026-05-04 00:54 23.66859 -75.67669 38058 ft 418 kts 143°
2026-05-04 00:55 23.62617 -75.63374 38057 ft 417 kts 143°
2026-05-04 00:55 23.58431 -75.59142 38058 ft 417 kts 143°
2026-05-04 00:56 23.54344 -75.55015 38060 ft 417 kts 143°
2026-05-04 00:56 23.50698 -75.51337 38060 ft 418 kts 143°
2026-05-04 00:57 23.46842 -75.47450 38063 ft 417 kts 143°
2026-05-04 00:57 23.42803 -75.43381 38060 ft 417 kts 143°
2026-05-04 00:58 23.38777 -75.39330 38062 ft 421 kts 143°
2026-05-04 00:58 23.34809 -75.35337 38057 ft 421 kts 143°
2026-05-04 00:59 23.30529 -75.31038 38062 ft 427 kts 143°
2026-05-04 00:59 23.26135 -75.26633 38066 ft 439 kts 143°
2026-05-04 01:00 23.21676 -75.22164 38069 ft 452 kts 143°
2026-05-04 01:00 23.17101 -75.17580 38067 ft 464 kts 143°
2026-05-04 01:01 23.12312 -75.12785 38064 ft 477 kts 143°
2026-05-04 01:01 23.07761 -75.07639 38064 ft 496 kts 131°
2026-05-04 01:02 23.03955 -75.01769 38063 ft 508 kts 129°
2026-05-04 01:02 23.00113 -74.95830 38062 ft 516 kts 129°
2026-05-04 01:03 22.96054 -74.89573 38063 ft 520 kts 129°
2026-05-04 01:03 22.91898 -74.83174 38063 ft 519 kts 129°
2026-05-04 01:04 22.87766 -74.76825 38063 ft 520 kts 129°
2026-05-04 01:04 22.83616 -74.70459 38063 ft 520 kts 129°
2026-05-04 01:05 22.79540 -74.64214 38063 ft 519 kts 129°
2026-05-04 01:05 22.75600 -74.58184 38065 ft 519 kts 129°
2026-05-04 01:06 22.71409 -74.51777 38065 ft 519 kts 129°
2026-05-04 01:06 22.67256 -74.45437 38066 ft 519 kts 129°
2026-05-04 01:07 22.63831 -74.40214 38065 ft 517 kts 129°
2026-05-04 01:07 22.59677 -74.33886 38065 ft 517 kts 129°
2026-05-04 01:08 22.55506 -74.27541 38066 ft 517 kts 129°
2026-05-04 01:08 22.51354 -74.21231 38069 ft 517 kts 129°
2026-05-04 01:09 22.47180 -74.14893 38068 ft 517 kts 129°
2026-05-04 01:09 22.43928 -74.09964 38066 ft 517 kts 129°
2026-05-04 01:10 22.39959 -74.03952 38063 ft 517 kts 129°
2026-05-04 01:10 22.35921 -73.97843 38066 ft 517 kts 129°
2026-05-04 01:11 22.31848 -73.91695 38066 ft 517 kts 129°
2026-05-04 01:11 22.27764 -73.85530 38057 ft 516 kts 129°
2026-05-04 01:12 22.23693 -73.79389 38066 ft 516 kts 129°
2026-05-04 01:12 22.19754 -73.73454 38069 ft 516 kts 129°
2026-05-04 01:13 22.15686 -73.67334 38066 ft 516 kts 129°
2026-05-04 01:13 22.11558 -73.61133 38069 ft 516 kts 129°
2026-05-04 01:14 22.07420 -73.54921 38069 ft 516 kts 129°
2026-05-04 01:14 22.03263 -73.48690 38069 ft 516 kts 129°
2026-05-04 01:15 21.99134 -73.42507 38071 ft 516 kts 129°
2026-05-04 01:15 21.94966 -73.36272 38071 ft 516 kts 129°
2026-05-04 01:16 21.90810 -73.30064 38051 ft 515 kts 129°
2026-05-04 01:16 21.86659 -73.23871 38062 ft 513 kts 128°
2026-05-04 01:17 21.82527 -73.17712 38061 ft 513 kts 129°
2026-05-04 01:17 21.78609 -73.11877 38075 ft 513 kts 129°
2026-05-04 01:18 21.74435 -73.05670 38072 ft 513 kts 129°
2026-05-04 01:18 21.70290 -72.99511 38059 ft 513 kts 129°
2026-05-04 01:19 21.66279 -72.93560 38070 ft 512 kts 128°
2026-05-04 01:19 21.62109 -72.87377 38064 ft 512 kts 128°
2026-05-04 01:20 21.58008 -72.81304 38060 ft 512 kts 128°
2026-05-04 01:20 21.53904 -72.75235 38042 ft 512 kts 128°
2026-05-04 01:21 21.49758 -72.69109 38067 ft 511 kts 128°
2026-05-04 01:21 21.45602 -72.62976 38066 ft 511 kts 128°
2026-05-04 01:22 21.41466 -72.56880 38061 ft 509 kts 128°
2026-05-04 01:22 21.37575 -72.51149 38072 ft 510 kts 128°
2026-05-04 01:23 21.34041 -72.45951 38060 ft 510 kts 128°
2026-05-04 01:23 21.30032 -72.40058 38062 ft 510 kts 128°
2026-05-04 01:24 21.26010 -72.34153 38067 ft 510 kts 128°
2026-05-04 01:24 21.21947 -72.28193 38062 ft 510 kts 128°
2026-05-04 01:25 21.17878 -72.22233 38068 ft 508 kts 128°
2026-05-04 01:25 21.13764 -72.16214 38066 ft 504 kts 128°
2026-05-04 01:26 21.09639 -72.10184 38064 ft 506 kts 128°
2026-05-04 01:26 21.05652 -72.04363 38067 ft 505 kts 128°
2026-05-04 01:27 21.01552 -71.98381 38066 ft 505 kts 128°
2026-05-04 01:27 20.98191 -71.93483 38065 ft 505 kts 128°
2026-05-04 01:28 20.95070 -71.88940 38065 ft 504 kts 128°
2026-05-04 01:28 20.91278 -71.83422 38063 ft 504 kts 128°
2026-05-04 01:29 20.88152 -71.78877 38063 ft 504 kts 128°
2026-05-04 01:29 20.84276 -71.73248 37899 ft 500 kts 128°
2026-05-04 01:29 20.82242 -71.70294 37389 ft 498 kts 128°
2026-05-04 01:30 20.80227 -71.67372 36684 ft 496 kts 128°
2026-05-04 01:30 20.78262 -71.64524 35894 ft 495 kts 128°
2026-05-04 01:30 20.76271 -71.61639 35105 ft 493 kts 128°
2026-05-04 01:30 20.74265 -71.58735 34257 ft 493 kts 128°
2026-05-04 01:31 20.72267 -71.55842 33307 ft 494 kts 128°
2026-05-04 01:31 20.70334 -71.53043 32333 ft 494 kts 128°
2026-05-04 01:31 20.68365 -71.50195 31362 ft 494 kts 128°
2026-05-04 01:31 20.66419 -71.47379 30398 ft 495 kts 128°
2026-05-04 01:32 20.64641 -71.44808 29728 ft 494 kts 129°
2026-05-04 01:32 20.62626 -71.41899 29340 ft 502 kts 129°
2026-05-04 01:32 20.60629 -71.39019 29352 ft 505 kts 129°
2026-05-04 01:33 20.56557 -71.33145 29455 ft 504 kts 129°
2026-05-04 01:33 20.52430 -71.27198 29465 ft 504 kts 129°
2026-05-04 01:34 20.48277 -71.21217 29467 ft 504 kts 129°
2026-05-04 01:34 20.44119 -71.15256 29463 ft 504 kts 130°
2026-05-04 01:35 20.39344 -71.09873 29454 ft 500 kts 141°
2026-05-04 01:35 20.33922 -71.05301 29448 ft 499 kts 144°
2026-05-04 01:36 20.28460 -71.00738 29453 ft 499 kts 144°
2026-05-04 01:36 20.23053 -70.96220 29446 ft 499 kts 144°
2026-05-04 01:37 20.17769 -70.91812 29448 ft 499 kts 144°
2026-05-04 01:37 20.12365 -70.87305 29181 ft 480 kts 144°
2026-05-04 01:37 20.09838 -70.85197 29059 ft 461 kts 144°
2026-05-04 01:38 20.07420 -70.83181 29049 ft 448 kts 144°
2026-05-04 01:38 20.02422 -70.79030 29047 ft 457 kts 144°
2026-05-04 01:39 19.97837 -70.75222 29043 ft 457 kts 144°
2026-05-04 01:39 19.92889 -70.71111 29039 ft 456 kts 144°
2026-05-04 01:40 19.87870 -70.66946 29032 ft 457 kts 144°
2026-05-04 01:40 19.83041 -70.62941 29028 ft 457 kts 144°
2026-05-04 01:41 19.78392 -70.59086 29028 ft 457 kts 144°
2026-05-04 01:41 19.73372 -70.55276 29028 ft 455 kts 149°
2026-05-04 01:42 19.68198 -70.51717 29042 ft 455 kts 149°
2026-05-04 01:42 19.63039 -70.48159 29040 ft 455 kts 149°
2026-05-04 01:43 19.57987 -70.44678 29042 ft 455 kts 149°
2026-05-04 01:43 19.52713 -70.41046 29043 ft 450 kts 149°
2026-05-04 01:43 19.50175 -70.39298 29040 ft 432 kts 149°
2026-05-04 01:44 19.47699 -70.37591 29039 ft 414 kts 149°
2026-05-04 01:44 19.45333 -70.35963 28950 ft 398 kts 149°
2026-05-04 01:44 19.43044 -70.34390 28825 ft 385 kts 149°
2026-05-04 01:44 19.40842 -70.32877 28705 ft 371 kts 149°
2026-05-04 01:45 19.38721 -70.31421 28596 ft 358 kts 149°
2026-05-04 01:45 19.36691 -70.30027 28485 ft 346 kts 149°
2026-05-04 01:45 19.32798 -70.27356 28282 ft 321 kts 149°
2026-05-04 01:46 19.30962 -70.26097 28183 ft 308 kts 149°
2026-05-04 01:46 19.29192 -70.24883 28011 ft 298 kts 149°
2026-05-04 01:46 19.27453 -70.23692 27640 ft 296 kts 149°
2026-05-04 01:46 19.25729 -70.22513 27245 ft 294 kts 149°
2026-05-04 01:47 19.24050 -70.21364 26885 ft 292 kts 149°
2026-05-04 01:47 19.22342 -70.20196 26527 ft 290 kts 149°
2026-05-04 01:47 19.20648 -70.19037 26149 ft 288 kts 149°
2026-05-04 01:47 19.18965 -70.17885 25505 ft 291 kts 149°
2026-05-04 01:48 19.17255 -70.16716 24930 ft 292 kts 148°
2026-05-04 01:48 19.15575 -70.15567 24464 ft 289 kts 148°
2026-05-04 01:48 19.13932 -70.14438 24010 ft 286 kts 146°
2026-05-04 01:48 19.12380 -70.13129 23528 ft 285 kts 140°
2026-05-04 01:49 19.10875 -70.11769 23032 ft 279 kts 141°
2026-05-04 01:49 19.09466 -70.10506 22515 ft 277 kts 141°
2026-05-04 01:49 19.08076 -70.09263 21938 ft 279 kts 141°
2026-05-04 01:49 19.06620 -70.07963 21422 ft 277 kts 141°
2026-05-04 01:50 19.05158 -70.06657 20912 ft 275 kts 142°
2026-05-04 01:50 19.03701 -70.05356 20420 ft 273 kts 142°
2026-05-04 01:50 19.02267 -70.04075 19932 ft 272 kts 142°
2026-05-04 01:50 19.00828 -70.02788 19463 ft 270 kts 142°
2026-05-04 01:51 18.99411 -70.01521 18982 ft 269 kts 143°
2026-05-04 01:51 18.97985 -70.00247 18523 ft 268 kts 143°
2026-05-04 01:51 18.96557 -69.98973 17890 ft 272 kts 143°
2026-05-04 01:51 18.95125 -69.97703 16967 ft 285 kts 142°
2026-05-04 01:52 18.93546 -69.96305 15839 ft 306 kts 142°
2026-05-04 01:52 18.91882 -69.94831 14759 ft 321 kts 142°
2026-05-04 01:52 18.90037 -69.93456 13704 ft 332 kts 148°
2026-05-04 01:52 18.88133 -69.92179 13047 ft 327 kts 148°
2026-05-04 01:53 18.86244 -69.90903 12535 ft 317 kts 147°
2026-05-04 01:53 18.85070 -69.90109 12067 ft 317 kts 147°
2026-05-04 01:53 18.83076 -69.88763 11006 ft 325 kts 147°
2026-05-04 01:53 18.81296 -69.87564 9835 ft 338 kts 147°
2026-05-04 01:54 18.79309 -69.86222 8370 ft 353 kts 147°
2026-05-04 01:54 18.77307 -69.84871 7111 ft 361 kts 147°
2026-05-04 01:54 18.75277 -69.83501 6312 ft 351 kts 147°
2026-05-04 01:54 18.73388 -69.82234 5563 ft 297 kts 147°
2026-05-04 01:55 18.71794 -69.81204 4714 ft 253 kts 148°
2026-05-04 01:55 18.70408 -69.80355 3969 ft 215 kts 149°
2026-05-04 01:55 18.69280 -69.79649 3851 ft 173 kts 146°
2026-05-04 01:55 18.68301 -69.78943 3116 ft 178 kts 144°
2026-05-04 01:56 18.67645 -69.78453 2668 ft 178 kts 144°
2026-05-04 01:56 18.66665 -69.77737 2285 ft 162 kts 145°
2026-05-04 01:56 18.65781 -69.77116 2077 ft 143 kts 144°
2026-05-04 01:56 18.65025 -69.76598 2036 ft 117 kts 144°
2026-05-04 01:57 18.64084 -69.75969 2426 ft 131 kts 146°
2026-05-04 01:57 18.63493 -69.75586 2617 ft 164 kts 146°
2026-05-04 01:57 18.62378 -69.74836 2435 ft 221 kts 146°
2026-05-04 01:57 18.60995 -69.73885 2097 ft 251 kts 146°
2026-05-04 01:58 18.59708 -69.73149 2054 ft 204 kts 155°
2026-05-04 01:58 18.58535 -69.72700 1987 ft 169 kts 159°
2026-05-04 01:58 18.57498 -69.72321 1712 ft 156 kts 158°
2026-05-04 01:58 18.56486 -69.71940 1302 ft 156 kts 158°
2026-05-04 01:59 18.55518 -69.71573 1111 ft 146 kts 159°
2026-05-04 01:59 18.54548 -69.71221 1235 ft 150 kts 159°
2026-05-04 01:59 18.53532 -69.70843 1300 ft 158 kts 158°
2026-05-04 01:59 18.52496 -69.70454 1407 ft 160 kts 158°
2026-05-04 02:00 18.51463 -69.70065 1529 ft 164 kts 158°
2026-05-04 02:00 18.50384 -69.69651 1415 ft 158 kts 158°
2026-05-04 02:00 18.49494 -69.69313 1272 ft 146 kts 158°
2026-05-04 02:00 18.48586 -69.68971 1054 ft 139 kts 159°
2026-05-04 02:01 18.47721 -69.68652 997 ft 131 kts 157°
2026-05-04 02:01 18.46854 -69.68315 742 ft 139 kts 159°
2026-05-04 02:01 18.45930 -69.67974 486 ft 148 kts 160°
2026-05-04 02:01 18.44974 -69.67627 264 ft 146 kts 159°
2026-05-04 02:02 18.44067 -69.67291 68 ft 137 kts 159°
2026-05-04 02:02 18.43367 -69.67012 65 ft 67 kts 154°
2026-05-04 02:02 18.43174 -69.66952 66 ft 17 kts 173°
2026-05-04 02:02 18.43040 -69.66935 64 ft 21 kts 163°
2026-05-04 02:03 18.42940 -69.66977 64 ft 16 kts 261°
2026-05-04 02:03 18.42953 -69.67167 65 ft 29 kts 278°
2026-05-04 02:03 18.42915 -69.67359 63 ft 23 kts 206°
2026-05-04 02:03 18.42839 -69.67415 65 ft 11 kts 297°
2026-05-04 02:04 18.42854 -69.67437 55 ft 0 kts 300°
2026-05-04 02:04 18.42858 -69.67443 61 ft 1 kts 303°
2026-05-04 02:04 18.42859 -69.67444 61 ft 0 kts 304°